owner,sensor,date,latitude,longitude,vertical_datum,wind_speed,wind_to_direction,wind_speed_of_gust,qcFlag 
DISL,ioos:station:DISL:MBLA:1,2008-12-01T00:00:00Z,30.4367,-88.0117,14.2,10.84,256.3,-9999.0,'1111122,1111122,1111122' 
DISL,ioos:station:DISL:MBLA:1,2008-12-01T00:30:00Z,30.4367,-88.0117,14.2,12.81,267.0,-9999.0,'1111122,1111122,1111122' 
DISL,ioos:station:DISL:MBLA:1,2008-12-01T01:00:00Z,30.4367,-88.0117,14.2,11.71,275.0,-9999.0,'1111122,1111122,1111122' 
DISL,ioos:station:DISL:MBLA:1,2008-12-01T01:30:00Z,30.4367,-88.0117,14.2,11.94,294.3,-9999.0,'1111122,1111122,1111122' 
DISL,ioos:station:DISL:MBLA:1,2008-12-01T02:00:00Z,30.4367,-88.0117,14.2,14.63,288.1,-9999.0,'1111122,1111122,1111122' 
DISL,ioos:station:DISL:MBLA:1,2008-12-01T02:30:00Z,30.4367,-88.0117,14.2,11.16,286.2,-9999.0,'1111122,1111122,1111122' 
DISL,ioos:station:DISL:MBLA:1,2008-12-01T03:00:00Z,30.4367,-88.0117,14.2,9.9,286.0,-9999.0,'1111122,1111122,1111122' 
DISL,ioos:station:DISL:MBLA:1,2008-12-01T03:30:00Z,30.4367,-88.0117,14.2,8.85,274.7,-9999.0,'1111122,1111122,1111122' 
DISL,ioos:station:DISL:MBLA:1,2008-12-01T04:00:00Z,30.4367,-88.0117,14.2,7.79,266.9,-9999.0,'1111122,1111122,1111122' 
DISL,ioos:station:DISL:MBLA:1,2008-12-01T04:30:00Z,30.4367,-88.0117,14.2,8.18,266.4,-9999.0,'1111122,1111122,1111122' 
DISL,ioos:station:DISL:MBLA:1,2008-12-01T05:00:00Z,30.4367,-88.0117,14.2,7.55,262.4,-9999.0,'1111122,1111122,1111122' 
DISL,ioos:station:DISL:MBLA:1,2008-12-01T05:30:00Z,30.4367,-88.0117,14.2,8.57,260.0,-9999.0,'1111122,1111122,1111122' 
DISL,ioos:station:DISL:MBLA:1,2008-12-01T06:00:00Z,30.4367,-88.0117,14.2,8.12,266.3,-9999.0,'1111122,1111122,1111122' 
DISL,ioos:station:DISL:MBLA:1,2008-12-01T06:30:00Z,30.4367,-88.0117,14.2,9.9,252.7,-9999.0,'1111122,1111122,1111122' 
DISL,ioos:station:DISL:MBLA:1,2008-12-01T07:00:00Z,30.4367,-88.0117,14.2,9.89,250.8,-9999.0,'1111122,1111122,1111122' 
DISL,ioos:station:DISL:MBLA:1,2008-12-01T07:30:00Z,30.4367,-88.0117,14.2,11.21,271.9,-9999.0,'1111122,1111122,1111122' 
DISL,ioos:station:DISL:MBLA:1,2008-12-01T08:00:00Z,30.4367,-88.0117,14.2,10.04,265.4,-9999.0,'1111122,1111122,1111122' 
DISL,ioos:station:DISL:MBLA:1,2008-12-01T08:30:00Z,30.4367,-88.0117,14.2,9.3,261.6,-9999.0,'1111122,1111122,1111122' 
DISL,ioos:station:DISL:MBLA:1,2008-12-01T09:00:00Z,30.4367,-88.0117,14.2,9.96,259.2,-9999.0,'1111122,1111122,1111122' 
DISL,ioos:station:DISL:MBLA:1,2008-12-01T09:30:00Z,30.4367,-88.0117,14.2,11.3,261.4,-9999.0,'1111122,1111122,1111122' 
DISL,ioos:station:DISL:MBLA:1,2008-12-01T10:00:00Z,30.4367,-88.0117,14.2,9.8,250.1,-9999.0,'1111122,1111122,1111122' 
DISL,ioos:station:DISL:MBLA:1,2008-12-01T10:30:00Z,30.4367,-88.0117,14.2,10.03,261.7,-9999.0,'1111122,1111122,1111122' 
DISL,ioos:station:DISL:MBLA:1,2008-12-01T11:00:00Z,30.4367,-88.0117,14.2,9.77,270.4,-9999.0,'1111122,1111122,1111122' 
DISL,ioos:station:DISL:MBLA:1,2008-12-01T11:30:00Z,30.4367,-88.0117,14.2,9.76,270.7,-9999.0,'1111122,1111122,1111122' 
DISL,ioos:station:DISL:MBLA:1,2008-12-01T12:00:00Z,30.4367,-88.0117,14.2,9.45,272.3,-9999.0,'1111122,1111122,1111122' 
DISL,ioos:station:DISL:MBLA:1,2008-12-01T12:30:00Z,30.4367,-88.0117,14.2,7.62,262.4,-9999.0,'1111122,1111122,1111122' 
DISL,ioos:station:DISL:MBLA:1,2008-12-01T13:00:00Z,30.4367,-88.0117,14.2,8.6,266.7,-9999.0,'1111122,1111122,1111122' 
DISL,ioos:station:DISL:MBLA:1,2008-12-01T13:30:00Z,30.4367,-88.0117,14.2,7.82,254.4,-9999.0,'1111122,1111122,1111122' 
DISL,ioos:station:DISL:MBLA:1,2008-12-01T14:00:00Z,30.4367,-88.0117,14.2,8.77,258.8,-9999.0,'1111122,1111122,1111122' 
DISL,ioos:station:DISL:MBLA:1,2008-12-01T14:30:00Z,30.4367,-88.0117,14.2,10.17,266.5,-9999.0,'1111122,1111122,1111122' 
DISL,ioos:station:DISL:MBLA:1,2008-12-01T15:00:00Z,30.4367,-88.0117,14.2,9.94,267.3,-9999.0,'1111122,1111122,1111122' 
DISL,ioos:station:DISL:MBLA:1,2008-12-01T15:30:00Z,30.4367,-88.0117,14.2,9.44,271.6,-9999.0,'1111122,1111122,1111122' 
DISL,ioos:station:DISL:MBLA:1,2008-12-01T16:00:00Z,30.4367,-88.0117,14.2,10.41,268.1,-9999.0,'1111122,1111122,1111122' 
DISL,ioos:station:DISL:MBLA:1,2008-12-01T16:30:00Z,30.4367,-88.0117,14.2,12.01,259.0,-9999.0,'1111122,1111122,1111122' 
DISL,ioos:station:DISL:MBLA:1,2008-12-01T17:00:00Z,30.4367,-88.0117,14.2,12.22,269.7,-9999.0,'1111122,1111122,1111122' 
DISL,ioos:station:DISL:MBLA:1,2008-12-01T17:30:00Z,30.4367,-88.0117,14.2,9.88,252.0,-9999.0,'1111122,1111122,1111122' 
DISL,ioos:station:DISL:MBLA:1,2008-12-01T18:00:00Z,30.4367,-88.0117,14.2,8.98,240.2,-9999.0,'1111122,1111122,1111122' 
DISL,ioos:station:DISL:MBLA:1,2008-12-01T18:30:00Z,30.4367,-88.0117,14.2,9.47,230.2,-9999.0,'1111122,1111122,1111122' 
DISL,ioos:station:DISL:MBLA:1,2008-12-01T19:00:00Z,30.4367,-88.0117,14.2,10.73,228.7,-9999.0,'1111122,1111122,1111122' 
DISL,ioos:station:DISL:MBLA:1,2008-12-01T19:30:00Z,30.4367,-88.0117,14.2,10.41,230.8,-9999.0,'1111122,1111122,1111122' 
DISL,ioos:station:DISL:MBLA:1,2008-12-01T20:00:00Z,30.4367,-88.0117,14.2,10.1,232.8,-9999.0,'1111122,1111122,1111122' 
DISL,ioos:station:DISL:MBLA:1,2008-12-01T20:30:00Z,30.4367,-88.0117,14.2,10.79,234.5,-9999.0,'1111122,1111122,1111122' 
DISL,ioos:station:DISL:MBLA:1,2008-12-01T21:00:00Z,30.4367,-88.0117,14.2,10.96,249.2,-9999.0,'1111122,1111122,1111122' 
DISL,ioos:station:DISL:MBLA:1,2008-12-01T21:30:00Z,30.4367,-88.0117,14.2,9.51,247.2,-9999.0,'1111122,1111122,1111122' 
DISL,ioos:station:DISL:MBLA:1,2008-12-01T22:00:00Z,30.4367,-88.0117,14.2,8.49,279.0,-9999.0,'1111122,1111122,1111122' 
DISL,ioos:station:DISL:MBLA:1,2008-12-01T22:30:00Z,30.4367,-88.0117,14.2,6.56,287.2,-9999.0,'1111122,1111122,1111122' 
DISL,ioos:station:DISL:MBLA:1,2008-12-01T23:00:00Z,30.4367,-88.0117,14.2,9.33,300.2,-9999.0,'1111122,1111122,1111122' 
DISL,ioos:station:DISL:MBLA:1,2008-12-01T23:30:00Z,30.4367,-88.0117,14.2,9.7,304.5,-9999.0,'1111122,1111122,1111122' 
DISL,ioos:station:DISL:MBLA:1,2008-12-02T00:00:00Z,30.4367,-88.0117,14.2,9.45,309.0,-9999.0,'1111122,1111122,1111122' 
DISL,ioos:station:DISL:MBLA:1,2008-12-02T00:30:00Z,30.4367,-88.0117,14.2,9.41,308.1,-9999.0,'1111122,1111122,1111122' 
DISL,ioos:station:DISL:MBLA:1,2008-12-02T01:00:00Z,30.4367,-88.0117,14.2,12.44,317.1,-9999.0,'1111122,1111122,1111122' 
DISL,ioos:station:DISL:MBLA:1,2008-12-02T01:30:00Z,30.4367,-88.0117,14.2,12.35,318.3,-9999.0,'1111122,1111122,1111122' 
DISL,ioos:station:DISL:MBLA:1,2008-12-02T02:00:00Z,30.4367,-88.0117,14.2,12.42,314.2,-9999.0,'1111122,1111122,1111122' 
DISL,ioos:station:DISL:MBLA:1,2008-12-02T02:30:00Z,30.4367,-88.0117,14.2,11.35,300.5,-9999.0,'1111122,1111122,1111122' 
DISL,ioos:station:DISL:MBLA:1,2008-12-02T03:00:00Z,30.4367,-88.0117,14.2,12.51,304.7,-9999.0,'1111122,1111122,1111122' 
DISL,ioos:station:DISL:MBLA:1,2008-12-02T03:30:00Z,30.4367,-88.0117,14.2,11.89,304.4,-9999.0,'1111122,1111122,1111122' 
DISL,ioos:station:DISL:MBLA:1,2008-12-02T04:00:00Z,30.4367,-88.0117,14.2,11.27,308.4,-9999.0,'1111122,1111122,1111122' 
DISL,ioos:station:DISL:MBLA:1,2008-12-02T04:30:00Z,30.4367,-88.0117,14.2,9.91,302.1,-9999.0,'1111122,1111122,1111122' 
DISL,ioos:station:DISL:MBLA:1,2008-12-02T05:00:00Z,30.4367,-88.0117,14.2,9.52,310.3,-9999.0,'1111122,1111122,1111122' 
DISL,ioos:station:DISL:MBLA:1,2008-12-02T05:30:00Z,30.4367,-88.0117,14.2,9.38,310.9,-9999.0,'1111122,1111122,1111122' 
DISL,ioos:station:DISL:MBLA:1,2008-12-02T06:00:00Z,30.4367,-88.0117,14.2,8.23,308.8,-9999.0,'1111122,1111122,1111122' 
DISL,ioos:station:DISL:MBLA:1,2008-12-02T06:30:00Z,30.4367,-88.0117,14.2,9.04,301.7,-9999.0,'1111122,1111122,1111122' 
DISL,ioos:station:DISL:MBLA:1,2008-12-02T07:00:00Z,30.4367,-88.0117,14.2,8.63,304.9,-9999.0,'1111122,1111122,1111122' 
DISL,ioos:station:DISL:MBLA:1,2008-12-02T07:30:00Z,30.4367,-88.0117,14.2,8.49,306.4,-9999.0,'1111122,1111122,1111122' 
DISL,ioos:station:DISL:MBLA:1,2008-12-02T08:00:00Z,30.4367,-88.0117,14.2,8.79,308.1,-9999.0,'1111122,1111122,1111122' 
DISL,ioos:station:DISL:MBLA:1,2008-12-02T08:30:00Z,30.4367,-88.0117,14.2,8.07,302.0,-9999.0,'1111122,1111122,1111122' 
DISL,ioos:station:DISL:MBLA:1,2008-12-02T09:00:00Z,30.4367,-88.0117,14.2,7.33,311.3,-9999.0,'1111122,1111122,1111122' 
DISL,ioos:station:DISL:MBLA:1,2008-12-02T09:30:00Z,30.4367,-88.0117,14.2,7.27,310.4,-9999.0,'1111122,1111122,1111122' 
DISL,ioos:station:DISL:MBLA:1,2008-12-02T10:00:00Z,30.4367,-88.0117,14.2,7.34,313.0,-9999.0,'1111122,1111122,1111122' 
DISL,ioos:station:DISL:MBLA:1,2008-12-02T10:30:00Z,30.4367,-88.0117,14.2,7.31,308.4,-9999.0,'1111122,1111122,1111122' 
DISL,ioos:station:DISL:MBLA:1,2008-12-02T11:00:00Z,30.4367,-88.0117,14.2,7.79,324.0,-9999.0,'1111122,1111122,1111122' 
DISL,ioos:station:DISL:MBLA:1,2008-12-02T11:30:00Z,30.4367,-88.0117,14.2,7.01,319.3,-9999.0,'1111122,1111122,1111122' 
DISL,ioos:station:DISL:MBLA:1,2008-12-02T12:00:00Z,30.4367,-88.0117,14.2,5.89,332.0,-9999.0,'1111122,1111122,1111122' 
DISL,ioos:station:DISL:MBLA:1,2008-12-02T12:30:00Z,30.4367,-88.0117,14.2,6.15,338.5,-9999.0,'1111122,1111122,1111122' 
DISL,ioos:station:DISL:MBLA:1,2008-12-02T13:00:00Z,30.4367,-88.0117,14.2,5.17,334.5,-9999.0,'1111122,1111122,1111122' 
DISL,ioos:station:DISL:MBLA:1,2008-12-02T13:30:00Z,30.4367,-88.0117,14.2,4.23,341.2,-9999.0,'1111122,1111122,1111122' 
DISL,ioos:station:DISL:MBLA:1,2008-12-02T14:00:00Z,30.4367,-88.0117,14.2,4.32,345.0,-9999.0,'1111122,1111122,1111122' 
DISL,ioos:station:DISL:MBLA:1,2008-12-02T14:30:00Z,30.4367,-88.0117,14.2,4.09,354.1,-9999.0,'1111122,1111122,1111122' 
DISL,ioos:station:DISL:MBLA:1,2008-12-02T15:00:00Z,30.4367,-88.0117,14.2,2.77,5.827,-9999.0,'1111122,1111122,1111122' 
DISL,ioos:station:DISL:MBLA:1,2008-12-02T15:30:00Z,30.4367,-88.0117,14.2,2.5,20.65,-9999.0,'1111122,1111122,1111122' 
DISL,ioos:station:DISL:MBLA:1,2008-12-02T16:00:00Z,30.4367,-88.0117,14.2,2.22,24.18,-9999.0,'1111122,1111122,1111122' 
DISL,ioos:station:DISL:MBLA:1,2008-12-02T16:30:00Z,30.4367,-88.0117,14.2,2.48,12.5,-9999.0,'1111122,1111122,1111122' 
DISL,ioos:station:DISL:MBLA:1,2008-12-02T17:00:00Z,30.4367,-88.0117,14.2,1.99,29.12,-9999.0,'1111122,1111122,1111122' 
DISL,ioos:station:DISL:MBLA:1,2008-12-02T17:30:00Z,30.4367,-88.0117,14.2,1.77,50.35,-9999.0,'1111122,1111122,1111122' 
DISL,ioos:station:DISL:MBLA:1,2008-12-02T18:00:00Z,30.4367,-88.0117,14.2,1.91,152.6,-9999.0,'1111122,1111122,1111122' 
DISL,ioos:station:DISL:MBLA:1,2008-12-02T18:30:00Z,30.4367,-88.0117,14.2,2.12,171.0,-9999.0,'1111122,1111122,1111122' 
DISL,ioos:station:DISL:MBLA:1,2008-12-02T19:00:00Z,30.4367,-88.0117,14.2,3.43,164.5,-9999.0,'1111122,1111122,1111122' 
DISL,ioos:station:DISL:MBLA:1,2008-12-02T19:30:00Z,30.4367,-88.0117,14.2,3.89,186.7,-9999.0,'1111122,1111122,1111122' 
DISL,ioos:station:DISL:MBLA:1,2008-12-02T20:00:00Z,30.4367,-88.0117,14.2,4.67,173.0,-9999.0,'1111122,1111122,1111122' 
DISL,ioos:station:DISL:MBLA:1,2008-12-02T20:30:00Z,30.4367,-88.0117,14.2,5.14,172.7,-9999.0,'1111122,1111122,1111122' 
DISL,ioos:station:DISL:MBLA:1,2008-12-02T21:00:00Z,30.4367,-88.0117,14.2,5.3,177.9,-9999.0,'1111122,1111122,1111122' 
DISL,ioos:station:DISL:MBLA:1,2008-12-02T21:30:00Z,30.4367,-88.0117,14.2,5.57,186.4,-9999.0,'1111122,1111122,1111122' 
DISL,ioos:station:DISL:MBLA:1,2008-12-02T22:00:00Z,30.4367,-88.0117,14.2,5.22,198.8,-9999.0,'1111122,1111122,1111122' 
DISL,ioos:station:DISL:MBLA:1,2008-12-02T22:30:00Z,30.4367,-88.0117,14.2,5.9,217.8,-9999.0,'1111122,1111122,1111122' 
DISL,ioos:station:DISL:MBLA:1,2008-12-02T23:00:00Z,30.4367,-88.0117,14.2,5.66,227.3,-9999.0,'1111122,1111122,1111122' 
DISL,ioos:station:DISL:MBLA:1,2008-12-02T23:30:00Z,30.4367,-88.0117,14.2,4.92,228.1,-9999.0,'1111122,1111122,1111122' 
DISL,ioos:station:DISL:MBLA:1,2008-12-03T00:00:00Z,30.4367,-88.0117,14.2,4.18,225.4,-9999.0,'1111122,1111122,1111122' 
DISL,ioos:station:DISL:MBLA:1,2008-12-03T00:30:00Z,30.4367,-88.0117,14.2,3.6,218.8,-9999.0,'1111122,1111122,1111122' 
DISL,ioos:station:DISL:MBLA:1,2008-12-03T01:00:00Z,30.4367,-88.0117,14.2,3.78,234.8,-9999.0,'1111122,1111122,1111122' 
DISL,ioos:station:DISL:MBLA:1,2008-12-03T01:30:00Z,30.4367,-88.0117,14.2,3.56,222.8,-9999.0,'1111122,1111122,1111122' 
DISL,ioos:station:DISL:MBLA:1,2008-12-03T02:00:00Z,30.4367,-88.0117,14.2,2.34,233.3,-9999.0,'1111122,1111122,1111122' 
DISL,ioos:station:DISL:MBLA:1,2008-12-03T02:30:00Z,30.4367,-88.0117,14.2,2.81,218.7,-9999.0,'1111122,1111122,1111122' 
DISL,ioos:station:DISL:MBLA:1,2008-12-03T03:00:00Z,30.4367,-88.0117,14.2,2.13,207.0,-9999.0,'1111122,1111122,1111122' 
DISL,ioos:station:DISL:MBLA:1,2008-12-03T03:30:00Z,30.4367,-88.0117,14.2,2.36,178.1,-9999.0,'1111122,1111122,1111122' 
DISL,ioos:station:DISL:MBLA:1,2008-12-03T04:00:00Z,30.4367,-88.0117,14.2,1.98,151.9,-9999.0,'1111122,1111122,1111122' 
DISL,ioos:station:DISL:MBLA:1,2008-12-03T04:30:00Z,30.4367,-88.0117,14.2,1.89,164.8,-9999.0,'1111122,1111122,1111122' 
DISL,ioos:station:DISL:MBLA:1,2008-12-03T05:00:00Z,30.4367,-88.0117,14.2,3.62,115.9,-9999.0,'1111122,1111122,1111122' 
DISL,ioos:station:DISL:MBLA:1,2008-12-03T05:30:00Z,30.4367,-88.0117,14.2,3.72,121.8,-9999.0,'1111122,1111122,1111122' 
DISL,ioos:station:DISL:MBLA:1,2008-12-03T06:00:00Z,30.4367,-88.0117,14.2,3.8,128.3,-9999.0,'1111122,1111122,1111122' 
DISL,ioos:station:DISL:MBLA:1,2008-12-03T06:30:00Z,30.4367,-88.0117,14.2,3.71,128.3,-9999.0,'1111122,1111122,1111122' 
DISL,ioos:station:DISL:MBLA:1,2008-12-03T07:00:00Z,30.4367,-88.0117,14.2,4.23,111.6,-9999.0,'1111122,1111122,1111122' 
DISL,ioos:station:DISL:MBLA:1,2008-12-03T07:30:00Z,30.4367,-88.0117,14.2,5.01,111.4,-9999.0,'1111122,1111122,1111122' 
DISL,ioos:station:DISL:MBLA:1,2008-12-03T08:00:00Z,30.4367,-88.0117,14.2,5.72,101.1,-9999.0,'1111122,1111122,1111122' 
DISL,ioos:station:DISL:MBLA:1,2008-12-03T08:30:00Z,30.4367,-88.0117,14.2,5.72,112.5,-9999.0,'1111122,1111122,1111122' 
DISL,ioos:station:DISL:MBLA:1,2008-12-03T09:00:00Z,30.4367,-88.0117,14.2,6.06,103.1,-9999.0,'1111122,1111122,1111122' 
DISL,ioos:station:DISL:MBLA:1,2008-12-03T09:30:00Z,30.4367,-88.0117,14.2,6.02,101.4,-9999.0,'1111122,1111122,1111122' 
DISL,ioos:station:DISL:MBLA:1,2008-12-03T10:00:00Z,30.4367,-88.0117,14.2,6.48,100.0,-9999.0,'1111122,1111122,1111122' 
DISL,ioos:station:DISL:MBLA:1,2008-12-03T10:30:00Z,30.4367,-88.0117,14.2,6.98,93.4,-9999.0,'1111122,1111122,1111122' 
DISL,ioos:station:DISL:MBLA:1,2008-12-03T11:00:00Z,30.4367,-88.0117,14.2,6.32,95.3,-9999.0,'1111122,1111122,1111122' 
DISL,ioos:station:DISL:MBLA:1,2008-12-03T11:30:00Z,30.4367,-88.0117,14.2,6.41,95.7,-9999.0,'1111122,1111122,1111122' 
DISL,ioos:station:DISL:MBLA:1,2008-12-03T12:00:00Z,30.4367,-88.0117,14.2,5.99,94.2,-9999.0,'1111122,1111122,1111122' 
DISL,ioos:station:DISL:MBLA:1,2008-12-03T12:30:00Z,30.4367,-88.0117,14.2,6.07,91.5,-9999.0,'1111122,1111122,1111122' 
DISL,ioos:station:DISL:MBLA:1,2008-12-03T13:00:00Z,30.4367,-88.0117,14.2,6.45,90.0,-9999.0,'1111122,1111122,1111122' 
DISL,ioos:station:DISL:MBLA:1,2008-12-03T13:30:00Z,30.4367,-88.0117,14.2,6.72,88.0,-9999.0,'1111122,1111122,1111122' 
DISL,ioos:station:DISL:MBLA:1,2008-12-03T14:00:00Z,30.4367,-88.0117,14.2,6.48,92.0,-9999.0,'1111122,1111122,1111122' 
DISL,ioos:station:DISL:MBLA:1,2008-12-03T14:30:00Z,30.4367,-88.0117,14.2,6.2,98.3,-9999.0,'1111122,1111122,1111122' 
DISL,ioos:station:DISL:MBLA:1,2008-12-03T15:00:00Z,30.4367,-88.0117,14.2,6.21,105.1,-9999.0,'1111122,1111122,1111122' 
DISL,ioos:station:DISL:MBLA:1,2008-12-03T15:30:00Z,30.4367,-88.0117,14.2,6.12,115.6,-9999.0,'1111122,1111122,1111122' 
DISL,ioos:station:DISL:MBLA:1,2008-12-03T16:00:00Z,30.4367,-88.0117,14.2,6.14,120.3,-9999.0,'1111122,1111122,1111122' 
DISL,ioos:station:DISL:MBLA:1,2008-12-03T16:30:00Z,30.4367,-88.0117,14.2,5.64,136.3,-9999.0,'1111122,1111122,1111122' 
DISL,ioos:station:DISL:MBLA:1,2008-12-03T17:00:00Z,30.4367,-88.0117,14.2,6.72,141.7,-9999.0,'1111122,1111122,1111122' 
DISL,ioos:station:DISL:MBLA:1,2008-12-03T17:30:00Z,30.4367,-88.0117,14.2,6.81,142.3,-9999.0,'1111122,1111122,1111122' 
DISL,ioos:station:DISL:MBLA:1,2008-12-03T18:00:00Z,30.4367,-88.0117,14.2,6.68,141.2,-9999.0,'1111122,1111122,1111122' 
DISL,ioos:station:DISL:MBLA:1,2008-12-03T18:30:00Z,30.4367,-88.0117,14.2,6.53,140.4,-9999.0,'1111122,1111122,1111122' 
DISL,ioos:station:DISL:MBLA:1,2008-12-03T19:00:00Z,30.4367,-88.0117,14.2,6.57,136.6,-9999.0,'1111122,1111122,1111122' 
DISL,ioos:station:DISL:MBLA:1,2008-12-03T19:30:00Z,30.4367,-88.0117,14.2,6.87,131.6,-9999.0,'1111122,1111122,1111122' 
DISL,ioos:station:DISL:MBLA:1,2008-12-03T20:00:00Z,30.4367,-88.0117,14.2,7.0,128.6,-9999.0,'1111122,1111122,1111122' 
DISL,ioos:station:DISL:MBLA:1,2008-12-03T20:30:00Z,30.4367,-88.0117,14.2,6.53,130.1,-9999.0,'1111122,1111122,1111122' 
DISL,ioos:station:DISL:MBLA:1,2008-12-03T21:00:00Z,30.4367,-88.0117,14.2,6.7,132.4,-9999.0,'1111122,1111122,1111122' 
DISL,ioos:station:DISL:MBLA:1,2008-12-03T21:30:00Z,30.4367,-88.0117,14.2,6.67,128.9,-9999.0,'1111122,1111122,1111122' 
DISL,ioos:station:DISL:MBLA:1,2008-12-03T22:00:00Z,30.4367,-88.0117,14.2,7.03,127.3,-9999.0,'1111122,1111122,1111122' 
DISL,ioos:station:DISL:MBLA:1,2008-12-03T22:30:00Z,30.4367,-88.0117,14.2,7.64,126.7,-9999.0,'1111122,1111122,1111122' 
DISL,ioos:station:DISL:MBLA:1,2008-12-03T23:00:00Z,30.4367,-88.0117,14.2,7.55,125.9,-9999.0,'1111122,1111122,1111122' 
DISL,ioos:station:DISL:MBLA:1,2008-12-03T23:30:00Z,30.4367,-88.0117,14.2,6.92,129.4,-9999.0,'1111122,1111122,1111122' 
DISL,ioos:station:DISL:MBLA:1,2008-12-04T00:00:00Z,30.4367,-88.0117,14.2,7.34,131.4,-9999.0,'1111122,1111122,1111122' 
DISL,ioos:station:DISL:MBLA:1,2008-12-04T00:30:00Z,30.4367,-88.0117,14.2,6.99,128.8,-9999.0,'1111122,1111122,1111122' 
DISL,ioos:station:DISL:MBLA:1,2008-12-04T01:00:00Z,30.4367,-88.0117,14.2,7.15,132.3,-9999.0,'1111122,1111122,1111122' 
DISL,ioos:station:DISL:MBLA:1,2008-12-04T01:30:00Z,30.4367,-88.0117,14.2,7.47,136.7,-9999.0,'1111122,1111122,1111122' 
DISL,ioos:station:DISL:MBLA:1,2008-12-04T02:00:00Z,30.4367,-88.0117,14.2,8.05,138.8,-9999.0,'1111122,1111122,1111122' 
DISL,ioos:station:DISL:MBLA:1,2008-12-04T02:30:00Z,30.4367,-88.0117,14.2,6.61,141.4,-9999.0,'1111122,1111122,1111122' 
DISL,ioos:station:DISL:MBLA:1,2008-12-04T03:00:00Z,30.4367,-88.0117,14.2,7.09,139.2,-9999.0,'1111122,1111122,1111122' 
DISL,ioos:station:DISL:MBLA:1,2008-12-04T03:30:00Z,30.4367,-88.0117,14.2,7.65,139.6,-9999.0,'1111122,1111122,1111122' 
DISL,ioos:station:DISL:MBLA:1,2008-12-04T04:00:00Z,30.4367,-88.0117,14.2,7.49,140.3,-9999.0,'1111122,1111122,1111122' 
DISL,ioos:station:DISL:MBLA:1,2008-12-04T04:30:00Z,30.4367,-88.0117,14.2,6.63,137.4,-9999.0,'1111122,1111122,1111122' 
DISL,ioos:station:DISL:MBLA:1,2008-12-04T05:00:00Z,30.4367,-88.0117,14.2,6.05,139.4,-9999.0,'1111122,1111122,1111122' 
DISL,ioos:station:DISL:MBLA:1,2008-12-04T05:30:00Z,30.4367,-88.0117,14.2,5.63,125.5,-9999.0,'1111122,1111122,1111122' 
DISL,ioos:station:DISL:MBLA:1,2008-12-04T06:00:00Z,30.4367,-88.0117,14.2,8.94,149.6,-9999.0,'1111122,1111122,1111122' 
DISL,ioos:station:DISL:MBLA:1,2008-12-04T06:30:00Z,30.4367,-88.0117,14.2,9.04,145.9,-9999.0,'1111122,1111122,1111122' 
DISL,ioos:station:DISL:MBLA:1,2008-12-04T07:00:00Z,30.4367,-88.0117,14.2,8.94,139.3,-9999.0,'1111122,1111122,1111122' 
DISL,ioos:station:DISL:MBLA:1,2008-12-04T07:30:00Z,30.4367,-88.0117,14.2,9.84,140.7,-9999.0,'1111122,1111122,1111122' 
DISL,ioos:station:DISL:MBLA:1,2008-12-04T08:00:00Z,30.4367,-88.0117,14.2,8.1,144.2,-9999.0,'1111122,1111122,1111122' 
DISL,ioos:station:DISL:MBLA:1,2008-12-04T08:30:00Z,30.4367,-88.0117,14.2,8.34,147.3,-9999.0,'1111122,1111122,1111122' 
DISL,ioos:station:DISL:MBLA:1,2008-12-04T09:00:00Z,30.4367,-88.0117,14.2,7.45,152.7,-9999.0,'1111122,1111122,1111122' 
DISL,ioos:station:DISL:MBLA:1,2008-12-04T09:30:00Z,30.4367,-88.0117,14.2,8.14,150.6,-9999.0,'1111122,1111122,1111122' 
DISL,ioos:station:DISL:MBLA:1,2008-12-04T10:00:00Z,30.4367,-88.0117,14.2,9.11,154.1,-9999.0,'1111122,1111122,1111122' 
DISL,ioos:station:DISL:MBLA:1,2008-12-04T10:30:00Z,30.4367,-88.0117,14.2,8.73,150.1,-9999.0,'1111122,1111122,1111122' 
DISL,ioos:station:DISL:MBLA:1,2008-12-04T11:00:00Z,30.4367,-88.0117,14.2,8.93,146.8,-9999.0,'1111122,1111122,1111122' 
DISL,ioos:station:DISL:MBLA:1,2008-12-04T11:30:00Z,30.4367,-88.0117,14.2,8.97,146.5,-9999.0,'1111122,1111122,1111122' 
DISL,ioos:station:DISL:MBLA:1,2008-12-04T12:00:00Z,30.4367,-88.0117,14.2,8.57,148.2,-9999.0,'1111122,1111122,1111122' 
DISL,ioos:station:DISL:MBLA:1,2008-12-04T12:30:00Z,30.4367,-88.0117,14.2,7.04,150.4,-9999.0,'1111122,1111122,1111122' 
DISL,ioos:station:DISL:MBLA:1,2008-12-04T13:00:00Z,30.4367,-88.0117,14.2,7.96,150.8,-9999.0,'1111122,1111122,1111122' 
DISL,ioos:station:DISL:MBLA:1,2008-12-04T13:30:00Z,30.4367,-88.0117,14.2,8.67,145.9,-9999.0,'1111122,1111122,1111122' 
DISL,ioos:station:DISL:MBLA:1,2008-12-04T14:00:00Z,30.4367,-88.0117,14.2,7.46,148.1,-9999.0,'1111122,1111122,1111122' 
DISL,ioos:station:DISL:MBLA:1,2008-12-04T14:30:00Z,30.4367,-88.0117,14.2,8.67,156.4,-9999.0,'1111122,1111122,1111122' 
DISL,ioos:station:DISL:MBLA:1,2008-12-04T15:00:00Z,30.4367,-88.0117,14.2,5.66,151.4,-9999.0,'1111122,1111122,1111122' 
DISL,ioos:station:DISL:MBLA:1,2008-12-04T15:30:00Z,30.4367,-88.0117,14.2,4.1,212.8,-9999.0,'1111122,1111122,1111122' 
DISL,ioos:station:DISL:MBLA:1,2008-12-04T16:00:00Z,30.4367,-88.0117,14.2,10.26,295.1,-9999.0,'1111122,1111122,1111122' 
DISL,ioos:station:DISL:MBLA:1,2008-12-04T16:30:00Z,30.4367,-88.0117,14.2,4.2,301.7,-9999.0,'1111122,1111122,1111122' 
DISL,ioos:station:DISL:MBLA:1,2008-12-04T17:00:00Z,30.4367,-88.0117,14.2,3.88,275.0,-9999.0,'1111122,1111122,1111122' 
DISL,ioos:station:DISL:MBLA:1,2008-12-04T17:30:00Z,30.4367,-88.0117,14.2,1.82,328.8,-9999.0,'1111122,1111122,1111122' 
DISL,ioos:station:DISL:MBLA:1,2008-12-04T18:00:00Z,30.4367,-88.0117,14.2,2.42,17.39,-9999.0,'1111122,1111122,1111122' 
DISL,ioos:station:DISL:MBLA:1,2008-12-04T18:30:00Z,30.4367,-88.0117,14.2,3.59,28.28,-9999.0,'1111122,1111122,1111122' 
DISL,ioos:station:DISL:MBLA:1,2008-12-04T19:00:00Z,30.4367,-88.0117,14.2,4.24,25.15,-9999.0,'1111122,1111122,1111122' 
DISL,ioos:station:DISL:MBLA:1,2008-12-04T19:30:00Z,30.4367,-88.0117,14.2,3.36,15.2,-9999.0,'1111122,1111122,1111122' 
DISL,ioos:station:DISL:MBLA:1,2008-12-04T20:00:00Z,30.4367,-88.0117,14.2,2.37,34.12,-9999.0,'1111122,1111122,1111122' 
DISL,ioos:station:DISL:MBLA:1,2008-12-04T20:30:00Z,30.4367,-88.0117,14.2,2.7,27.88,-9999.0,'1111122,1111122,1111122' 
DISL,ioos:station:DISL:MBLA:1,2008-12-04T21:00:00Z,30.4367,-88.0117,14.2,3.34,36.68,-9999.0,'1111122,1111122,1111122' 
DISL,ioos:station:DISL:MBLA:1,2008-12-04T21:30:00Z,30.4367,-88.0117,14.2,4.48,342.2,-9999.0,'1111122,1111122,1111122' 
DISL,ioos:station:DISL:MBLA:1,2008-12-04T22:00:00Z,30.4367,-88.0117,14.2,6.3,343.0,-9999.0,'1111122,1111122,1111122' 
DISL,ioos:station:DISL:MBLA:1,2008-12-04T22:30:00Z,30.4367,-88.0117,14.2,9.05,354.6,-9999.0,'1111122,1111122,1111122' 
DISL,ioos:station:DISL:MBLA:1,2008-12-04T23:00:00Z,30.4367,-88.0117,14.2,8.16,359.1,-9999.0,'1111122,1111122,1111122' 
DISL,ioos:station:DISL:MBLA:1,2008-12-04T23:30:00Z,30.4367,-88.0117,14.2,11.83,352.7,-9999.0,'1111122,1111122,1111122' 
DISL,ioos:station:DISL:MBLA:1,2008-12-05T00:00:00Z,30.4367,-88.0117,14.2,13.86,349.1,-9999.0,'1111122,1111122,1111122' 
DISL,ioos:station:DISL:MBLA:1,2008-12-05T00:30:00Z,30.4367,-88.0117,14.2,13.4,352.7,-9999.0,'1111122,1111122,1111122' 
DISL,ioos:station:DISL:MBLA:1,2008-12-05T01:00:00Z,30.4367,-88.0117,14.2,12.63,351.3,-9999.0,'1111122,1111122,1111122' 
DISL,ioos:station:DISL:MBLA:1,2008-12-05T01:30:00Z,30.4367,-88.0117,14.2,13.33,352.9,-9999.0,'1111122,1111122,1111122' 
DISL,ioos:station:DISL:MBLA:1,2008-12-05T02:00:00Z,30.4367,-88.0117,14.2,13.91,354.8,-9999.0,'1111122,1111122,1111122' 
DISL,ioos:station:DISL:MBLA:1,2008-12-05T02:30:00Z,30.4367,-88.0117,14.2,13.32,360.0,-9999.0,'1111122,1111122,1111122' 
DISL,ioos:station:DISL:MBLA:1,2008-12-05T03:00:00Z,30.4367,-88.0117,14.2,12.5,354.5,-9999.0,'1111122,1111122,1111122' 
DISL,ioos:station:DISL:MBLA:1,2008-12-05T03:30:00Z,30.4367,-88.0117,14.2,12.47,354.4,-9999.0,'1111122,1111122,1111122' 